owner,sensor,date,latitude,longitude,vertical_datum,sea_water_practical_salinity,qcFlag 
TABS,ioos:station:wmo:42050:1,2016-04-01T00:00:00Z,28.8425,-94.2433,2.0,34.0802,11111222 
TABS,ioos:station:wmo:42050:1,2016-04-01T00:30:00Z,28.8425,-94.2433,2.0,34.0809,11111222 
TABS,ioos:station:wmo:42050:1,2016-04-01T01:00:00Z,28.8425,-94.2433,2.0,34.0846,11111222 
TABS,ioos:station:wmo:42050:1,2016-04-01T01:30:00Z,28.8425,-94.2433,2.0,34.0867,11111222 
TABS,ioos:station:wmo:42050:1,2016-04-01T02:00:00Z,28.8425,-94.2433,2.0,34.0905,11111222 
TABS,ioos:station:wmo:42050:1,2016-04-02T11:30:00Z,28.8425,-94.2433,2.0,33.6981,11111222 
TABS,ioos:station:wmo:42050:1,2016-04-02T12:00:00Z,28.8425,-94.2433,2.0,33.6719,11111222 
TABS,ioos:station:wmo:42050:1,2016-04-02T12:30:00Z,28.8425,-94.2433,2.0,33.6536,11111222 
TABS,ioos:station:wmo:42050:1,2016-04-02T13:00:00Z,28.8425,-94.2433,2.0,33.6285,11111222 
TABS,ioos:station:wmo:42050:1,2016-04-02T13:30:00Z,28.8425,-94.2433,2.0,33.6211,11111222 
TABS,ioos:station:wmo:42050:1,2016-04-02T14:00:00Z,28.8425,-94.2433,2.0,33.6116,11111222 
TABS,ioos:station:wmo:42050:1,2016-04-02T14:30:00Z,28.8425,-94.2433,2.0,33.6101,11111222 
TABS,ioos:station:wmo:42050:1,2016-04-02T15:00:00Z,28.8425,-94.2433,2.0,33.6118,11111222 
TABS,ioos:station:wmo:42050:1,2016-04-02T15:30:00Z,28.8425,-94.2433,2.0,33.6232,11111222 
TABS,ioos:station:wmo:42050:1,2016-04-02T16:00:00Z,28.8425,-94.2433,2.0,33.6342,11111222 
TABS,ioos:station:wmo:42050:1,2016-04-02T16:30:00Z,28.8425,-94.2433,2.0,33.6431,11111222 
TABS,ioos:station:wmo:42050:1,2016-04-02T17:00:00Z,28.8425,-94.2433,2.0,33.6522,11111222 
TABS,ioos:station:wmo:42050:1,2016-04-02T17:30:00Z,28.8425,-94.2433,2.0,33.6578,11111222 
TABS,ioos:station:wmo:42050:1,2016-04-02T18:00:00Z,28.8425,-94.2433,2.0,33.6563,11111222 
TABS,ioos:station:wmo:42050:1,2016-04-02T18:30:00Z,28.8425,-94.2433,2.0,33.6492,11111222 
TABS,ioos:station:wmo:42050:1,2016-04-02T19:00:00Z,28.8425,-94.2433,2.0,33.6434,11111222 
TABS,ioos:station:wmo:42050:1,2016-04-02T19:30:00Z,28.8425,-94.2433,2.0,33.6319,11111222 
TABS,ioos:station:wmo:42050:1,2016-04-02T20:00:00Z,28.8425,-94.2433,2.0,33.6224,11111222 
TABS,ioos:station:wmo:42050:1,2016-04-02T20:30:00Z,28.8425,-94.2433,2.0,33.6147,11111222 
TABS,ioos:station:wmo:42050:1,2016-04-02T21:00:00Z,28.8425,-94.2433,2.0,33.6063,11111222 
TABS,ioos:station:wmo:42050:1,2016-04-02T21:30:00Z,28.8425,-94.2433,2.0,33.5956,11111222 
TABS,ioos:station:wmo:42050:1,2016-04-02T22:00:00Z,28.8425,-94.2433,2.0,33.583,11111222 
TABS,ioos:station:wmo:42050:1,2016-04-02T22:30:00Z,28.8425,-94.2433,2.0,33.5739,11111222 
TABS,ioos:station:wmo:42050:1,2016-04-02T23:00:00Z,28.8425,-94.2433,2.0,33.5397,11111222 
TABS,ioos:station:wmo:42050:1,2016-04-02T23:30:00Z,28.8425,-94.2433,2.0,33.5181,11111222 
TABS,ioos:station:wmo:42050:1,2016-04-03T00:00:00Z,28.8425,-94.2433,2.0,33.5004,11111222 
TABS,ioos:station:wmo:42050:1,2016-04-03T00:30:00Z,28.8425,-94.2433,2.0,33.4901,11111222 
TABS,ioos:station:wmo:42050:1,2016-04-03T01:00:00Z,28.8425,-94.2433,2.0,33.4789,11111222 
TABS,ioos:station:wmo:42050:1,2016-04-03T01:30:00Z,28.8425,-94.2433,2.0,33.4796,11111222 
TABS,ioos:station:wmo:42050:1,2016-04-03T02:00:00Z,28.8425,-94.2433,2.0,33.4799,11111222 
TABS,ioos:station:wmo:42050:1,2016-04-03T02:30:00Z,28.8425,-94.2433,2.0,33.4933,11111222 
TABS,ioos:station:wmo:42050:1,2016-04-03T03:00:00Z,28.8425,-94.2433,2.0,33.4898,11111222 
TABS,ioos:station:wmo:42050:1,2016-04-03T03:30:00Z,28.8425,-94.2433,2.0,33.4882,11111222 
TABS,ioos:station:wmo:42050:1,2016-04-03T04:00:00Z,28.8425,-94.2433,2.0,33.4869,11111222 
TABS,ioos:station:wmo:42050:1,2016-04-03T04:30:00Z,28.8425,-94.2433,2.0,33.4963,11111222 
TABS,ioos:station:wmo:42050:1,2016-04-03T05:00:00Z,28.8425,-94.2433,2.0,33.4915,11111222 
TABS,ioos:station:wmo:42050:1,2016-04-03T05:30:00Z,28.8425,-94.2433,2.0,33.4904,11111222 
TABS,ioos:station:wmo:42050:1,2016-04-03T06:00:00Z,28.8425,-94.2433,2.0,33.4872,11111222 
TABS,ioos:station:wmo:42050:1,2016-04-03T06:30:00Z,28.8425,-94.2433,2.0,33.4841,11111222 
TABS,ioos:station:wmo:42050:1,2016-04-03T07:00:00Z,28.8425,-94.2433,2.0,33.4784,11111222 
TABS,ioos:station:wmo:42050:1,2016-04-03T07:30:00Z,28.8425,-94.2433,2.0,33.4737,11111222 
TABS,ioos:station:wmo:42050:1,2016-04-03T08:00:00Z,28.8425,-94.2433,2.0,33.4692,11111222 
TABS,ioos:station:wmo:42050:1,2016-04-03T08:30:00Z,28.8425,-94.2433,2.0,33.4677,11111222 
TABS,ioos:station:wmo:42050:1,2016-04-03T09:00:00Z,28.8425,-94.2433,2.0,33.4492,11111222 
TABS,ioos:station:wmo:42050:1,2016-04-03T09:30:00Z,28.8425,-94.2433,2.0,33.437,11111222 
TABS,ioos:station:wmo:42050:1,2016-04-03T10:00:00Z,28.8425,-94.2433,2.0,33.4079,11111222 
TABS,ioos:station:wmo:42050:1,2016-04-03T10:30:00Z,28.8425,-94.2433,2.0,33.4077,11111222 
TABS,ioos:station:wmo:42050:1,2016-04-03T11:00:00Z,28.8425,-94.2433,2.0,33.4076,11111222 
TABS,ioos:station:wmo:42050:1,2016-04-03T11:30:00Z,28.8425,-94.2433,2.0,33.4044,11111222 
TABS,ioos:station:wmo:42050:1,2016-04-03T12:00:00Z,28.8425,-94.2433,2.0,33.4107,11111222 
TABS,ioos:station:wmo:42050:1,2016-04-03T12:30:00Z,28.8425,-94.2433,2.0,33.3846,11111222 
TABS,ioos:station:wmo:42050:1,2016-04-03T13:00:00Z,28.8425,-94.2433,2.0,33.3924,11111222 
TABS,ioos:station:wmo:42050:1,2016-04-03T13:30:00Z,28.8425,-94.2433,2.0,33.4032,11111222 
TABS,ioos:station:wmo:42050:1,2016-04-03T14:00:00Z,28.8425,-94.2433,2.0,33.4086,11111222 
TABS,ioos:station:wmo:42050:1,2016-04-03T14:30:00Z,28.8425,-94.2433,2.0,33.3935,11111222 
TABS,ioos:station:wmo:42050:1,2016-04-03T15:00:00Z,28.8425,-94.2433,2.0,33.3946,11111222 
TABS,ioos:station:wmo:42050:1,2016-04-03T15:30:00Z,28.8425,-94.2433,2.0,33.3936,11111222 
TABS,ioos:station:wmo:42050:1,2016-04-03T16:00:00Z,28.8425,-94.2433,2.0,33.4044,11111222 
TABS,ioos:station:wmo:42050:1,2016-04-03T16:30:00Z,28.8425,-94.2433,2.0,33.4002,11111222 
TABS,ioos:station:wmo:42050:1,2016-04-03T17:00:00Z,28.8425,-94.2433,2.0,33.3995,11111222 
TABS,ioos:station:wmo:42050:1,2016-04-03T17:30:00Z,28.8425,-94.2433,2.0,33.4013,11111222 
TABS,ioos:station:wmo:42050:1,2016-04-03T18:00:00Z,28.8425,-94.2433,2.0,33.4124,11111222 
TABS,ioos:station:wmo:42050:1,2016-04-03T18:30:00Z,28.8425,-94.2433,2.0,33.393,11111222 
TABS,ioos:station:wmo:42050:1,2016-04-03T19:00:00Z,28.8425,-94.2433,2.0,33.3928,11111222 
TABS,ioos:station:wmo:42050:1,2016-04-03T19:30:00Z,28.8425,-94.2433,2.0,33.3819,11111222 
TABS,ioos:station:wmo:42050:1,2016-04-03T20:00:00Z,28.8425,-94.2433,2.0,33.4065,11111222 
TABS,ioos:station:wmo:42050:1,2016-04-03T20:30:00Z,28.8425,-94.2433,2.0,33.3713,11111222 
TABS,ioos:station:wmo:42050:1,2016-04-03T21:00:00Z,28.8425,-94.2433,2.0,33.3862,11111222 
TABS,ioos:station:wmo:42050:1,2016-04-03T21:30:00Z,28.8425,-94.2433,2.0,33.3546,11111222 
TABS,ioos:station:wmo:42050:1,2016-04-03T22:00:00Z,28.8425,-94.2433,2.0,33.395,11111222 
TABS,ioos:station:wmo:42050:1,2016-04-03T22:30:00Z,28.8425,-94.2433,2.0,33.3551,11111222 
TABS,ioos:station:wmo:42050:1,2016-04-03T23:00:00Z,28.8425,-94.2433,2.0,33.4196,11111222 
TABS,ioos:station:wmo:42050:1,2016-04-03T23:30:00Z,28.8425,-94.2433,2.0,33.4195,11111222 
TABS,ioos:station:wmo:42050:1,2016-04-04T00:00:00Z,28.8425,-94.2433,2.0,33.3718,11111222 
TABS,ioos:station:wmo:42050:1,2016-04-04T00:30:00Z,28.8425,-94.2433,2.0,33.389,11111222 
TABS,ioos:station:wmo:42050:1,2016-04-04T01:00:00Z,28.8425,-94.2433,2.0,33.3832,11111222 
TABS,ioos:station:wmo:42050:1,2016-04-04T01:30:00Z,28.8425,-94.2433,2.0,33.3817,11111222 
TABS,ioos:station:wmo:42050:1,2016-04-04T02:00:00Z,28.8425,-94.2433,2.0,33.375,11111222 
TABS,ioos:station:wmo:42050:1,2016-04-04T02:30:00Z,28.8425,-94.2433,2.0,33.3805,11111222 
TABS,ioos:station:wmo:42050:1,2016-04-04T03:00:00Z,28.8425,-94.2433,2.0,33.3805,11111222 
TABS,ioos:station:wmo:42050:1,2016-04-04T03:30:00Z,28.8425,-94.2433,2.0,33.3856,11111222 
TABS,ioos:station:wmo:42050:1,2016-04-04T04:00:00Z,28.8425,-94.2433,2.0,33.3828,11111222 
TABS,ioos:station:wmo:42050:1,2016-04-04T04:30:00Z,28.8425,-94.2433,2.0,33.3861,11111222 
TABS,ioos:station:wmo:42050:1,2016-04-04T05:00:00Z,28.8425,-94.2433,2.0,33.3849,11111222 
TABS,ioos:station:wmo:42050:1,2016-04-04T05:30:00Z,28.8425,-94.2433,2.0,33.3867,11111222 
TABS,ioos:station:wmo:42050:1,2016-04-04T06:00:00Z,28.8425,-94.2433,2.0,33.3824,11111222 
TABS,ioos:station:wmo:42050:1,2016-04-04T06:30:00Z,28.8425,-94.2433,2.0,33.3818,11111222 
TABS,ioos:station:wmo:42050:1,2016-04-04T07:00:00Z,28.8425,-94.2433,2.0,33.3834,11111222 
TABS,ioos:station:wmo:42050:1,2016-04-04T07:30:00Z,28.8425,-94.2433,2.0,33.3686,11111222 
TABS,ioos:station:wmo:42050:1,2016-04-04T08:00:00Z,28.8425,-94.2433,2.0,33.3502,11111222 
TABS,ioos:station:wmo:42050:1,2016-04-04T08:30:00Z,28.8425,-94.2433,2.0,33.3403,11111222 
TABS,ioos:station:wmo:42050:1,2016-04-04T09:00:00Z,28.8425,-94.2433,2.0,33.3357,11111222 
TABS,ioos:station:wmo:42050:1,2016-04-04T09:30:00Z,28.8425,-94.2433,2.0,33.3269,11111222 
TABS,ioos:station:wmo:42050:1,2016-04-04T10:00:00Z,28.8425,-94.2433,2.0,33.3166,11111222 
TABS,ioos:station:wmo:42050:1,2016-04-04T10:30:00Z,28.8425,-94.2433,2.0,33.3037,11111222 
TABS,ioos:station:wmo:42050:1,2016-04-04T11:00:00Z,28.8425,-94.2433,2.0,33.3039,11111222 
TABS,ioos:station:wmo:42050:1,2016-04-04T11:30:00Z,28.8425,-94.2433,2.0,33.3068,11111222 
TABS,ioos:station:wmo:42050:1,2016-04-04T12:00:00Z,28.8425,-94.2433,2.0,33.303,11111222 
TABS,ioos:station:wmo:42050:1,2016-04-04T12:30:00Z,28.8425,-94.2433,2.0,33.2989,11111222 
TABS,ioos:station:wmo:42050:1,2016-04-04T13:00:00Z,28.8425,-94.2433,2.0,33.2922,11111222 
TABS,ioos:station:wmo:42050:1,2016-04-04T13:30:00Z,28.8425,-94.2433,2.0,33.2966,11111222 
TABS,ioos:station:wmo:42050:1,2016-04-04T14:00:00Z,28.8425,-94.2433,2.0,33.3062,11111222 
TABS,ioos:station:wmo:42050:1,2016-04-04T14:30:00Z,28.8425,-94.2433,2.0,33.3146,11111222 
TABS,ioos:station:wmo:42050:1,2016-04-04T15:00:00Z,28.8425,-94.2433,2.0,33.329,11111222 
TABS,ioos:station:wmo:42050:1,2016-04-04T15:30:00Z,28.8425,-94.2433,2.0,33.3422,11111222 
TABS,ioos:station:wmo:42050:1,2016-04-04T16:00:00Z,28.8425,-94.2433,2.0,33.3512,11111222 
TABS,ioos:station:wmo:42050:1,2016-04-04T16:30:00Z,28.8425,-94.2433,2.0,33.3584,11111222 
TABS,ioos:station:wmo:42050:1,2016-04-04T17:00:00Z,28.8425,-94.2433,2.0,33.3605,11111222 
TABS,ioos:station:wmo:42050:1,2016-04-04T17:30:00Z,28.8425,-94.2433,2.0,33.3734,11111222 
TABS,ioos:station:wmo:42050:1,2016-04-04T18:00:00Z,28.8425,-94.2433,2.0,33.4094,11111222 
TABS,ioos:station:wmo:42050:1,2016-04-04T18:30:00Z,28.8425,-94.2433,2.0,33.335,11111222 
TABS,ioos:station:wmo:42050:1,2016-04-04T19:00:00Z,28.8425,-94.2433,2.0,33.3409,11111222 
TABS,ioos:station:wmo:42050:1,2016-04-04T19:30:00Z,28.8425,-94.2433,2.0,33.3187,11111222 
TABS,ioos:station:wmo:42050:1,2016-04-04T20:00:00Z,28.8425,-94.2433,2.0,33.337,11111222 
TABS,ioos:station:wmo:42050:1,2016-04-04T20:30:00Z,28.8425,-94.2433,2.0,33.3175,11111222 
TABS,ioos:station:wmo:42050:1,2016-04-04T21:00:00Z,28.8425,-94.2433,2.0,33.3294,11111222 
TABS,ioos:station:wmo:42050:1,2016-04-04T21:30:00Z,28.8425,-94.2433,2.0,33.3467,11111222 
TABS,ioos:station:wmo:42050:1,2016-04-04T22:00:00Z,28.8425,-94.2433,2.0,33.3302,11111222 
TABS,ioos:station:wmo:42050:1,2016-04-04T22:30:00Z,28.8425,-94.2433,2.0,33.3312,11111222 
TABS,ioos:station:wmo:42050:1,2016-04-04T23:00:00Z,28.8425,-94.2433,2.0,33.3057,11111222 
TABS,ioos:station:wmo:42050:1,2016-04-04T23:30:00Z,28.8425,-94.2433,2.0,33.3057,11111222 
TABS,ioos:station:wmo:42050:1,2016-04-05T00:00:00Z,28.8425,-94.2433,2.0,33.2956,11111222 
TABS,ioos:station:wmo:42050:1,2016-04-05T00:30:00Z,28.8425,-94.2433,2.0,33.3005,11111222 
TABS,ioos:station:wmo:42050:1,2016-04-05T01:00:00Z,28.8425,-94.2433,2.0,33.2961,11111222 
TABS,ioos:station:wmo:42050:1,2016-04-05T01:30:00Z,28.8425,-94.2433,2.0,33.3004,11111222 
TABS,ioos:station:wmo:42050:1,2016-04-05T02:00:00Z,28.8425,-94.2433,2.0,33.2989,11111222 
TABS,ioos:station:wmo:42050:1,2016-04-05T02:30:00Z,28.8425,-94.2433,2.0,33.3001,11111222 
TABS,ioos:station:wmo:42050:1,2016-04-05T03:00:00Z,28.8425,-94.2433,2.0,33.3023,11111222 
TABS,ioos:station:wmo:42050:1,2016-04-05T03:30:00Z,28.8425,-94.2433,2.0,33.3053,11111222 
TABS,ioos:station:wmo:42050:1,2016-04-05T04:00:00Z,28.8425,-94.2433,2.0,33.3063,11111222 
TABS,ioos:station:wmo:42050:1,2016-04-05T04:30:00Z,28.8425,-94.2433,2.0,33.3105,11111222 
TABS,ioos:station:wmo:42050:1,2016-04-05T05:00:00Z,28.8425,-94.2433,2.0,33.3166,11111222 
TABS,ioos:station:wmo:42050:1,2016-04-05T05:30:00Z,28.8425,-94.2433,2.0,33.3196,11111222 
TABS,ioos:station:wmo:42050:1,2016-04-05T06:00:00Z,28.8425,-94.2433,2.0,33.3219,11111222 
TABS,ioos:station:wmo:42050:1,2016-04-05T06:30:00Z,28.8425,-94.2433,2.0,33.3301,11111222 
TABS,ioos:station:wmo:42050:1,2016-04-05T07:00:00Z,28.8425,-94.2433,2.0,33.3353,11111222 
TABS,ioos:station:wmo:42050:1,2016-04-05T07:30:00Z,28.8425,-94.2433,2.0,33.337,11111222 
TABS,ioos:station:wmo:42050:1,2016-04-05T08:00:00Z,28.8425,-94.2433,2.0,33.3411,11111222 
TABS,ioos:station:wmo:42050:1,2016-04-05T09:00:00Z,28.8425,-94.2433,2.0,33.3443,11111222 
TABS,ioos:station:wmo:42050:1,2016-04-05T09:30:00Z,28.8425,-94.2433,2.0,33.347,11111222 
TABS,ioos:station:wmo:42050:1,2016-04-05T10:00:00Z,28.8425,-94.2433,2.0,33.3635,11111222 
TABS,ioos:station:wmo:42050:1,2016-04-05T10:30:00Z,28.8425,-94.2433,2.0,33.369,11111222 
TABS,ioos:station:wmo:42050:1,2016-04-05T11:00:00Z,28.8425,-94.2433,2.0,33.3586,11111222 
TABS,ioos:station:wmo:42050:1,2016-04-05T11:30:00Z,28.8425,-94.2433,2.0,33.3436,11111222 
TABS,ioos:station:wmo:42050:1,2016-04-05T12:00:00Z,28.8425,-94.2433,2.0,33.3282,11111222 
TABS,ioos:station:wmo:42050:1,2016-04-05T12:30:00Z,28.8425,-94.2433,2.0,33.3264,11111222 
TABS,ioos:station:wmo:42050:1,2016-04-05T13:00:00Z,28.8425,-94.2433,2.0,33.3299,11111222 
TABS,ioos:station:wmo:42050:1,2016-04-05T13:30:00Z,28.8425,-94.2433,2.0,33.3202,11111222 
TABS,ioos:station:wmo:42050:1,2016-04-05T14:00:00Z,28.8425,-94.2433,2.0,33.3273,11111222 
TABS,ioos:station:wmo:42050:1,2016-04-05T14:30:00Z,28.8425,-94.2433,2.0,33.3272,11111222 
TABS,ioos:station:wmo:42050:1,2016-04-05T15:00:00Z,28.8425,-94.2433,2.0,33.3264,11111222 
TABS,ioos:station:wmo:42050:1,2016-04-05T15:30:00Z,28.8425,-94.2433,2.0,33.3293,11111222 
TABS,ioos:station:wmo:42050:1,2016-04-05T16:00:00Z,28.8425,-94.2433,2.0,33.3309,11111222 
TABS,ioos:station:wmo:42050:1,2016-04-05T16:30:00Z,28.8425,-94.2433,2.0,33.3377,11111222 
TABS,ioos:station:wmo:42050:1,2016-04-05T17:00:00Z,28.8425,-94.2433,2.0,33.3398,11111222 
TABS,ioos:station:wmo:42050:1,2016-04-05T17:30:00Z,28.8425,-94.2433,2.0,33.3414,11111222 
TABS,ioos:station:wmo:42050:1,2016-04-05T18:00:00Z,28.8425,-94.2433,2.0,33.3414,11111222 
TABS,ioos:station:wmo:42050:1,2016-04-05T18:30:00Z,28.8425,-94.2433,2.0,33.3457,11111222 
TABS,ioos:station:wmo:42050:1,2016-04-05T19:00:00Z,28.8425,-94.2433,2.0,33.3491,11111222 
TABS,ioos:station:wmo:42050:1,2016-04-05T19:30:00Z,28.8425,-94.2433,2.0,33.3396,11111222 
TABS,ioos:station:wmo:42050:1,2016-04-05T20:00:00Z,28.8425,-94.2433,2.0,33.3481,11111222 
TABS,ioos:station:wmo:42050:1,2016-04-05T20:30:00Z,28.8425,-94.2433,2.0,33.339,11111222 
TABS,ioos:station:wmo:42050:1,2016-04-05T21:00:00Z,28.8425,-94.2433,2.0,33.3459,11111222 
TABS,ioos:station:wmo:42050:1,2016-04-05T21:30:00Z,28.8425,-94.2433,2.0,33.3965,11111222 
TABS,ioos:station:wmo:42050:1,2016-04-05T22:00:00Z,28.8425,-94.2433,2.0,33.347,11111222 
TABS,ioos:station:wmo:42050:1,2016-04-05T22:30:00Z,28.8425,-94.2433,2.0,33.33,11111222 
TABS,ioos:station:wmo:42050:1,2016-04-05T23:00:00Z,28.8425,-94.2433,2.0,33.3134,11111222 
TABS,ioos:station:wmo:42050:1,2016-04-05T23:30:00Z,28.8425,-94.2433,2.0,33.3426,11111222 
TABS,ioos:station:wmo:42050:1,2016-04-06T00:00:00Z,28.8425,-94.2433,2.0,33.3454,11111222 
TABS,ioos:station:wmo:42050:1,2016-04-06T00:30:00Z,28.8425,-94.2433,2.0,33.3368,11111222 
TABS,ioos:station:wmo:42050:1,2016-04-06T01:00:00Z,28.8425,-94.2433,2.0,33.3433,11111222 
TABS,ioos:station:wmo:42050:1,2016-04-06T01:30:00Z,28.8425,-94.2433,2.0,33.339,11111222 
TABS,ioos:station:wmo:42050:1,2016-04-06T02:00:00Z,28.8425,-94.2433,2.0,33.3364,11111222 
TABS,ioos:station:wmo:42050:1,2016-04-06T02:30:00Z,28.8425,-94.2433,2.0,33.3402,11111222 
TABS,ioos:station:wmo:42050:1,2016-04-06T03:00:00Z,28.8425,-94.2433,2.0,33.3472,11111222 
TABS,ioos:station:wmo:42050:1,2016-04-06T03:30:00Z,28.8425,-94.2433,2.0,33.3519,11111222 
TABS,ioos:station:wmo:42050:1,2016-04-06T04:00:00Z,28.8425,-94.2433,2.0,33.3549,11111222 
TABS,ioos:station:wmo:42050:1,2016-04-06T04:30:00Z,28.8425,-94.2433,2.0,33.3579,11111222 
TABS,ioos:station:wmo:42050:1,2016-04-06T05:00:00Z,28.8425,-94.2433,2.0,33.3585,11111222 
TABS,ioos:station:wmo:42050:1,2016-04-06T05:30:00Z,28.8425,-94.2433,2.0,33.3549,11111222 
TABS,ioos:station:wmo:42050:1,2016-04-06T06:00:00Z,28.8425,-94.2433,2.0,33.3623,11111222 
TABS,ioos:station:wmo:42050:1,2016-04-06T06:30:00Z,28.8425,-94.2433,2.0,33.3673,11111222 
TABS,ioos:station:wmo:42050:1,2016-04-06T07:00:00Z,28.8425,-94.2433,2.0,33.3666,11111222 
TABS,ioos:station:wmo:42050:1,2016-04-06T07:30:00Z,28.8425,-94.2433,2.0,33.3624,11111222 
TABS,ioos:station:wmo:42050:1,2016-04-06T08:00:00Z,28.8425,-94.2433,2.0,33.3653,11111222 
TABS,ioos:station:wmo:42050:1,2016-04-06T08:30:00Z,28.8425,-94.2433,2.0,33.3669,11111222 
TABS,ioos:station:wmo:42050:1,2016-04-06T09:00:00Z,28.8425,-94.2433,2.0,33.3735,11111222 
TABS,ioos:station:wmo:42050:1,2016-04-06T09:30:00Z,28.8425,-94.2433,2.0,33.3809,11111222 
TABS,ioos:station:wmo:42050:1,2016-04-06T10:00:00Z,28.8425,-94.2433,2.0,33.385,11111222 
TABS,ioos:station:wmo:42050:1,2016-04-06T10:30:00Z,28.8425,-94.2433,2.0,33.3907,11111222 
TABS,ioos:station:wmo:42050:1,2016-04-06T11:00:00Z,28.8425,-94.2433,2.0,33.3949,11111222 
TABS,ioos:station:wmo:42050:1,2016-04-06T11:30:00Z,28.8425,-94.2433,2.0,33.3938,11111222 
TABS,ioos:station:wmo:42050:1,2016-04-06T12:00:00Z,28.8425,-94.2433,2.0,33.3951,11111222 
TABS,ioos:station:wmo:42050:1,2016-04-06T12:30:00Z,28.8425,-94.2433,2.0,33.3969,11111222 
TABS,ioos:station:wmo:42050:1,2016-04-06T13:00:00Z,28.8425,-94.2433,2.0,33.3985,11111222 
TABS,ioos:station:wmo:42050:1,2016-04-06T13:30:00Z,28.8425,-94.2433,2.0,33.4016,11111222 
TABS,ioos:station:wmo:42050:1,2016-04-06T14:00:00Z,28.8425,-94.2433,2.0,33.405,11111222 
TABS,ioos:station:wmo:42050:1,2016-04-06T14:30:00Z,28.8425,-94.2433,2.0,33.4086,11111222 
TABS,ioos:station:wmo:42050:1,2016-04-06T15:00:00Z,28.8425,-94.2433,2.0,33.4129,11111222 
TABS,ioos:station:wmo:42050:1,2016-04-06T15:30:00Z,28.8425,-94.2433,2.0,33.4181,11111222 
TABS,ioos:station:wmo:42050:1,2016-04-06T16:00:00Z,28.8425,-94.2433,2.0,33.4246,11111222 
TABS,ioos:station:wmo:42050:1,2016-04-06T16:30:00Z,28.8425,-94.2433,2.0,33.4288,11111222 
TABS,ioos:station:wmo:42050:1,2016-04-06T17:00:00Z,28.8425,-94.2433,2.0,33.4615,11111222 
TABS,ioos:station:wmo:42050:1,2016-04-06T17:30:00Z,28.8425,-94.2433,2.0,33.4497,11111222 
TABS,ioos:station:wmo:42050:1,2016-04-06T18:00:00Z,28.8425,-94.2433,2.0,33.4538,11111222 
TABS,ioos:station:wmo:42050:1,2016-04-06T18:30:00Z,28.8425,-94.2433,2.0,33.4531,11111222 
TABS,ioos:station:wmo:42050:1,2016-04-06T19:00:00Z,28.8425,-94.2433,2.0,33.4297,11111222 
TABS,ioos:station:wmo:42050:1,2016-04-06T19:30:00Z,28.8425,-94.2433,2.0,33.426,11111222 
TABS,ioos:station:wmo:42050:1,2016-04-06T20:00:00Z,28.8425,-94.2433,2.0,33.4324,11111222 
TABS,ioos:station:wmo:42050:1,2016-04-06T20:30:00Z,28.8425,-94.2433,2.0,33.4325,11111222 
TABS,ioos:station:wmo:42050:1,2016-04-06T21:00:00Z,28.8425,-94.2433,2.0,33.4324,11111222 
TABS,ioos:station:wmo:42050:1,2016-04-06T21:30:00Z,28.8425,-94.2433,2.0,33.4318,11111222 
TABS,ioos:station:wmo:42050:1,2016-04-06T22:00:00Z,28.8425,-94.2433,2.0,33.4369,11111222 
TABS,ioos:station:wmo:42050:1,2016-04-06T22:30:00Z,28.8425,-94.2433,2.0,33.4198,11111222 
TABS,ioos:station:wmo:42050:1,2016-04-06T23:00:00Z,28.8425,-94.2433,2.0,33.427,11111222 
TABS,ioos:station:wmo:42050:1,2016-04-06T23:30:00Z,28.8425,-94.2433,2.0,33.4297,11111222 
TABS,ioos:station:wmo:42050:1,2016-04-07T00:00:00Z,28.8425,-94.2433,2.0,33.4228,11111222 
TABS,ioos:station:wmo:42050:1,2016-04-07T00:30:00Z,28.8425,-94.2433,2.0,33.4071,11111222 
TABS,ioos:station:wmo:42050:1,2016-04-07T01:00:00Z,28.8425,-94.2433,2.0,33.4139,11111222 
TABS,ioos:station:wmo:42050:1,2016-04-07T01:30:00Z,28.8425,-94.2433,2.0,33.4087,11111222 
TABS,ioos:station:wmo:42050:1,2016-04-07T02:00:00Z,28.8425,-94.2433,2.0,33.4024,11111222 
TABS,ioos:station:wmo:42050:1,2016-04-07T02:30:00Z,28.8425,-94.2433,2.0,33.3988,11111222 
TABS,ioos:station:wmo:42050:1,2016-04-07T03:00:00Z,28.8425,-94.2433,2.0,33.3987,11111222 
TABS,ioos:station:wmo:42050:1,2016-04-07T03:30:00Z,28.8425,-94.2433,2.0,33.3979,11111222 
TABS,ioos:station:wmo:42050:1,2016-04-07T04:00:00Z,28.8425,-94.2433,2.0,33.3958,11111222 
TABS,ioos:station:wmo:42050:1,2016-04-07T04:30:00Z,28.8425,-94.2433,2.0,33.3939,11111222 
TABS,ioos:station:wmo:42050:1,2016-04-07T05:00:00Z,28.8425,-94.2433,2.0,33.3947,11111222 
TABS,ioos:station:wmo:42050:1,2016-04-07T05:30:00Z,28.8425,-94.2433,2.0,33.3957,11111222 
TABS,ioos:station:wmo:42050:1,2016-04-07T06:00:00Z,28.8425,-94.2433,2.0,33.3951,11111222 
TABS,ioos:station:wmo:42050:1,2016-04-07T06:30:00Z,28.8425,-94.2433,2.0,33.3965,11111222 
TABS,ioos:station:wmo:42050:1,2016-04-07T07:00:00Z,28.8425,-94.2433,2.0,33.3985,11111222 
TABS,ioos:station:wmo:42050:1,2016-04-07T07:30:00Z,28.8425,-94.2433,2.0,33.4031,11111222 
TABS,ioos:station:wmo:42050:1,2016-04-07T08:00:00Z,28.8425,-94.2433,2.0,33.4079,11111222 
TABS,ioos:station:wmo:42050:1,2016-04-07T08:30:00Z,28.8425,-94.2433,2.0,33.4103,11111222 
TABS,ioos:station:wmo:42050:1,2016-04-07T09:00:00Z,28.8425,-94.2433,2.0,33.4101,11111222 
TABS,ioos:station:wmo:42050:1,2016-04-07T09:30:00Z,28.8425,-94.2433,2.0,33.416,11111222 
TABS,ioos:station:wmo:42050:1,2016-04-07T10:00:00Z,28.8425,-94.2433,2.0,33.4188,11111222 
TABS,ioos:station:wmo:42050:1,2016-04-07T10:30:00Z,28.8425,-94.2433,2.0,33.4168,11111222 
TABS,ioos:station:wmo:42050:1,2016-04-07T11:00:00Z,28.8425,-94.2433,2.0,33.4101,11111222 
TABS,ioos:station:wmo:42050:1,2016-04-07T11:30:00Z,28.8425,-94.2433,2.0,33.4098,11111222 
TABS,ioos:station:wmo:42050:1,2016-04-07T12:00:00Z,28.8425,-94.2433,2.0,33.4083,11111222 
TABS,ioos:station:wmo:42050:1,2016-04-07T12:30:00Z,28.8425,-94.2433,2.0,33.4141,11111222 
TABS,ioos:station:wmo:42050:1,2016-04-07T13:00:00Z,28.8425,-94.2433,2.0,33.41,11111222 
TABS,ioos:station:wmo:42050:1,2016-04-07T13:30:00Z,28.8425,-94.2433,2.0,33.411,11111222 
TABS,ioos:station:wmo:42050:1,2016-04-07T14:00:00Z,28.8425,-94.2433,2.0,33.4008,11111222 
TABS,ioos:station:wmo:42050:1,2016-04-07T14:30:00Z,28.8425,-94.2433,2.0,33.406,11111222 
TABS,ioos:station:wmo:42050:1,2016-04-07T15:00:00Z,28.8425,-94.2433,2.0,33.4024,11111222 
TABS,ioos:station:wmo:42050:1,2016-04-07T15:30:00Z,28.8425,-94.2433,2.0,33.399,11111222 
TABS,ioos:station:wmo:42050:1,2016-04-07T16:00:00Z,28.8425,-94.2433,2.0,33.3962,11111222 
TABS,ioos:station:wmo:42050:1,2016-04-07T16:30:00Z,28.8425,-94.2433,2.0,33.4043,11111222 
TABS,ioos:station:wmo:42050:1,2016-04-07T17:00:00Z,28.8425,-94.2433,2.0,33.4443,11111222 
TABS,ioos:station:wmo:42050:1,2016-04-07T17:30:00Z,28.8425,-94.2433,2.0,33.3937,11111222 
TABS,ioos:station:wmo:42050:1,2016-04-07T18:00:00Z,28.8425,-94.2433,2.0,33.391,11111222 
TABS,ioos:station:wmo:42050:1,2016-04-07T18:30:00Z,28.8425,-94.2433,2.0,33.3704,11111222 
TABS,ioos:station:wmo:42050:1,2016-04-07T19:00:00Z,28.8425,-94.2433,2.0,33.3877,11111222 
TABS,ioos:station:wmo:42050:1,2016-04-07T19:30:00Z,28.8425,-94.2433,2.0,33.3801,11111222 
TABS,ioos:station:wmo:42050:1,2016-04-07T20:00:00Z,28.8425,-94.2433,2.0,33.4024,11111222 
TABS,ioos:station:wmo:42050:1,2016-04-07T20:30:00Z,28.8425,-94.2433,2.0,33.4527,11111222 
TABS,ioos:station:wmo:42050:1,2016-04-07T21:00:00Z,28.8425,-94.2433,2.0,33.3804,11111222 
TABS,ioos:station:wmo:42050:1,2016-04-07T21:30:00Z,28.8425,-94.2433,2.0,33.4213,11111222 
TABS,ioos:station:wmo:42050:1,2016-04-07T22:00:00Z,28.8425,-94.2433,2.0,33.4249,11111222 